Time,TemperatureF,DewpointF,PressureIn,WindDirection,WindDirectionDegrees,WindSpeedMPH,WindSpeedGustMPH,Humidity,HourlyPrecipIn,Conditions,Clouds,dailyrainin,SoftwareType,DateUTC
2013-07-16 00:06:00,70.4,69.0,30.07,East,84,6.0,10.0,95,0.01,,,1.38,weatherlink.com 1.10,2013-07-16 05:06:00,
2013-07-16 00:21:00,70.4,69.0,30.08,East,84,7.0,10.0,95,0.03,,,0.01,weatherlink.com 1.10,2013-07-16 05:21:00,
2013-07-16 00:36:00,70.5,69.0,30.08,East,82,7.0,11.0,95,0.05,,,0.03,weatherlink.com 1.10,2013-07-16 05:36:00,
2013-07-16 00:51:00,70.7,69.0,30.08,East,89,6.0,10.0,95,0.06,,,0.04,weatherlink.com 1.10,2013-07-16 05:51:00,
2013-07-16 01:06:00,70.7,69.0,30.08,East,100,8.0,10.0,95,0.05,,,0.04,weatherlink.com 1.10,2013-07-16 06:06:00,
2013-07-16 01:21:00,70.9,70.0,30.08,East,86,7.0,10.0,95,0.03,,,0.04,weatherlink.com 1.10,2013-07-16 06:21:00,
2013-07-16 01:36:00,70.8,69.0,30.08,East,90,6.0,10.0,95,0.02,,,0.05,weatherlink.com 1.10,2013-07-16 06:36:00,
2013-07-16 01:51:00,70.8,69.0,30.07,East,88,0.0,0.0,95,0.01,,,0.05,weatherlink.com 1.10,2013-07-16 06:51:00,
2013-07-16 02:06:00,70.7,69.0,30.07,East,90,0.0,0.0,95,0.02,,,0.06,weatherlink.com 1.10,2013-07-16 07:06:00,
2013-07-16 02:21:00,70.6,69.0,30.07,East,90,0.0,0.0,95,0.02,,,0.06,weatherlink.com 1.10,2013-07-16 07:21:00,
2013-07-16 02:36:00,70.6,69.0,30.07,East,86,7.0,7.0,95,0.03,,,0.08,weatherlink.com 1.10,2013-07-16 07:36:00,
2013-07-16 02:51:00,70.6,70.0,30.07,East,92,6.0,9.0,96,0.04,,,0.09,weatherlink.com 1.10,2013-07-16 07:51:00,
2013-07-16 03:06:00,70.6,70.0,30.07,East,93,5.0,7.0,96,0.03,,,0.09,weatherlink.com 1.10,2013-07-16 08:06:00,
2013-07-16 03:21:00,70.6,70.0,30.06,ENE,77,4.0,10.0,96,0.04,,,0.10,weatherlink.com 1.10,2013-07-16 08:21:00,
2013-07-16 03:36:00,70.7,70.0,30.06,East,86,7.0,9.0,96,0.03,,,0.11,weatherlink.com 1.10,2013-07-16 08:36:00,
2013-07-16 03:51:00,70.8,70.0,30.06,East,88,6.0,11.0,96,0.03,,,0.12,weatherlink.com 1.10,2013-07-16 08:51:00,
2013-07-16 04:06:00,70.7,70.0,30.06,East,86,3.0,10.0,96,0.04,,,0.13,weatherlink.com 1.10,2013-07-16 09:06:00,
2013-07-16 04:21:00,70.7,70.0,30.06,East,96,5.0,11.0,96,0.04,,,0.14,weatherlink.com 1.10,2013-07-16 09:21:00,
2013-07-16 04:36:00,70.6,70.0,30.06,ESE,103,10.0,14.0,96,0.03,,,0.14,weatherlink.com 1.10,2013-07-16 09:36:00,
2013-07-16 04:51:00,70.5,69.0,30.06,East,101,6.0,13.0,96,0.02,,,0.14,weatherlink.com 1.10,2013-07-16 09:51:00,
2013-07-16 05:06:00,70.4,69.0,30.06,East,94,7.0,10.0,96,0.02,,,0.15,weatherlink.com 1.10,2013-07-16 10:06:00,
2013-07-16 05:21:00,70.3,69.0,30.06,East,91,8.0,9.0,96,0.01,,,0.15,weatherlink.com 1.10,2013-07-16 10:21:00,
2013-07-16 05:36:00,70.3,69.0,30.07,ESE,102,7.0,11.0,96,0.01,,,0.15,weatherlink.com 1.10,2013-07-16 10:36:00,
2013-07-16 05:51:00,70.2,69.0,30.07,ESE,109,8.0,10.0,96,0.01,,,0.15,weatherlink.com 1.10,2013-07-16 10:51:00,
2013-07-16 06:06:00,70.2,69.0,30.08,East,101,6.0,10.0,96,0.00,,,0.15,weatherlink.com 1.10,2013-07-16 11:06:00,
2013-07-16 06:21:00,70.2,69.0,30.08,East,99,7.0,9.0,96,0.00,,,0.15,weatherlink.com 1.10,2013-07-16 11:21:00,
2013-07-16 06:36:00,70.1,69.0,30.09,East,94,5.0,8.0,96,0.00,,,0.15,weatherlink.com 1.10,2013-07-16 11:36:00,
2013-07-16 06:51:00,70.0,69.0,30.10,East,98,3.0,11.0,96,0.00,,,0.15,weatherlink.com 1.10,2013-07-16 11:51:00,
2013-07-16 07:06:00,69.9,69.0,30.10,East,90,7.0,13.0,96,0.00,,,0.15,weatherlink.com 1.10,2013-07-16 12:06:00,
2013-07-16 07:21:00,70.0,69.0,30.11,East,100,8.0,11.0,96,0.00,,,0.15,weatherlink.com 1.10,2013-07-16 12:21:00,
2013-07-16 07:36:00,70.1,69.0,30.11,East,94,6.0,7.0,96,0.00,,,0.15,weatherlink.com 1.10,2013-07-16 12:36:00,
2013-07-16 07:51:00,70.1,69.0,30.11,East,96,0.0,7.0,96,0.01,,,0.16,weatherlink.com 1.10,2013-07-16 12:51:00,
2013-07-16 08:06:00,70.3,69.0,30.11,ESE,108,4.0,8.0,96,0.02,,,0.17,weatherlink.com 1.10,2013-07-16 13:06:00,
2013-07-16 08:21:00,70.4,69.0,30.12,East,97,3.0,7.0,96,0.02,,,0.17,weatherlink.com 1.10,2013-07-16 13:21:00,
2013-07-16 08:36:00,70.7,70.0,30.12,East,94,5.0,8.0,96,0.02,,,0.17,weatherlink.com 1.10,2013-07-16 13:36:00,
2013-07-16 08:51:00,71.0,70.0,30.13,East,91,7.0,9.0,96,0.01,,,0.17,weatherlink.com 1.10,2013-07-16 13:51:00,
2013-07-16 09:06:00,71.4,70.0,30.14,ESE,109,7.0,10.0,96,0.00,,,0.17,weatherlink.com 1.10,2013-07-16 14:06:00,
2013-07-16 09:22:00,72.0,71.0,30.14,ESE,108,7.0,9.0,96,0.00,,,0.17,weatherlink.com 1.10,2013-07-16 14:22:00,
2013-07-16 09:37:00,72.6,71.0,30.14,East,96,6.0,11.0,96,0.00,,,0.17,weatherlink.com 1.10,2013-07-16 14:37:00,
2013-07-16 09:52:00,72.8,71.0,30.14,ESE,103,0.0,10.0,95,0.00,,,0.17,weatherlink.com 1.10,2013-07-16 14:52:00,
2013-07-16 10:07:00,73.4,72.0,30.14,ESE,102,5.0,11.0,94,0.00,,,0.17,weatherlink.com 1.10,2013-07-16 15:07:00,
2013-07-16 10:22:00,73.9,72.0,30.14,ESE,105,8.0,10.0,94,0.00,,,0.17,weatherlink.com 1.10,2013-07-16 15:22:00,
2013-07-16 10:37:00,73.8,72.0,30.14,ESE,111,8.0,11.0,93,0.00,,,0.17,weatherlink.com 1.10,2013-07-16 15:37:00,
2013-07-16 10:52:00,74.4,72.0,30.14,ESE,121,5.0,9.0,92,0.00,,,0.17,weatherlink.com 1.10,2013-07-16 15:52:00,
2013-07-16 11:07:00,74.7,72.0,30.15,ESE,117,0.0,12.0,92,0.00,,,0.17,weatherlink.com 1.10,2013-07-16 16:07:00,
2013-07-16 11:22:00,74.8,72.0,30.15,ESE,112,0.0,9.0,91,0.00,,,0.17,weatherlink.com 1.10,2013-07-16 16:22:00,
2013-07-16 11:37:00,74.8,72.0,30.15,SE,124,0.0,9.0,91,0.00,,,0.17,weatherlink.com 1.10,2013-07-16 16:37:00,
2013-07-16 11:52:00,75.4,73.0,30.15,East,95,7.0,9.0,91,0.00,,,0.17,weatherlink.com 1.10,2013-07-16 16:52:00,
2013-07-16 12:07:00,76.1,72.0,30.15,East,91,6.0,13.0,88,0.00,,,0.17,weatherlink.com 1.10,2013-07-16 17:07:00,
2013-07-16 12:22:00,76.9,73.0,30.15,SE,129,5.0,11.0,87,0.00,,,0.17,weatherlink.com 1.10,2013-07-16 17:22:00,
2013-07-16 12:37:00,77.8,73.0,30.14,East,92,7.0,10.0,84,0.00,,,0.17,weatherlink.com 1.10,2013-07-16 17:37:00,
2013-07-16 12:52:00,78.0,73.0,30.14,East,100,7.0,10.0,83,0.00,,,0.17,weatherlink.com 1.10,2013-07-16 17:52:00,
2013-07-16 13:07:00,78.8,73.0,30.13,ESE,107,0.0,10.0,81,0.00,,,0.17,weatherlink.com 1.10,2013-07-16 18:07:00,
2013-07-16 13:22:00,79.9,73.0,30.12,ESE,112,0.0,9.0,78,0.00,,,0.17,weatherlink.com 1.10,2013-07-16 18:22:00,
2013-07-16 13:37:00,80.6,72.0,30.12,SE,124,0.0,0.0,74,0.00,,,0.17,weatherlink.com 1.10,2013-07-16 18:37:00,
2013-07-16 13:52:00,81.6,72.0,30.11,ESE,121,0.0,8.0,72,0.00,,,0.17,weatherlink.com 1.10,2013-07-16 18:52:00,
2013-07-16 14:07:00,81.3,72.0,30.11,ESE,115,0.0,0.0,73,0.00,,,0.17,weatherlink.com 1.10,2013-07-16 19:07:00,
2013-07-16 14:22:00,82.3,72.0,30.11,East,101,0.0,8.0,72,0.00,,,0.17,weatherlink.com 1.10,2013-07-16 19:22:00,
2013-07-16 14:37:00,82.2,72.0,30.10,ESE,109,0.0,0.0,72,0.00,,,0.17,weatherlink.com 1.10,2013-07-16 19:37:00,
2013-07-16 14:52:00,82.5,73.0,30.10,ESE,116,0.0,9.0,72,0.00,,,0.17,weatherlink.com 1.10,2013-07-16 19:52:00,
2013-07-16 15:07:00,82.6,72.0,30.10,SE,142,0.0,8.0,71,0.00,,,0.17,weatherlink.com 1.10,2013-07-16 20:07:00,
2013-07-16 15:22:00,82.3,72.0,30.09,SE,127,0.0,0.0,70,0.00,,,0.17,weatherlink.com 1.10,2013-07-16 20:22:00,
2013-07-16 15:37:00,83.4,73.0,30.09,SE,125,0.0,7.0,70,0.00,,,0.17,weatherlink.com 1.10,2013-07-16 20:37:00,
2013-07-16 15:52:00,84.0,72.0,30.09,SE,128,0.0,0.0,68,0.00,,,0.17,weatherlink.com 1.10,2013-07-16 20:52:00,
2013-07-16 16:07:00,84.0,73.0,30.08,SSW,203,0.0,5.0,70,0.00,,,0.17,weatherlink.com 1.10,2013-07-16 21:07:00,
2013-07-16 16:22:00,84.5,73.0,30.08,ESE,107,0.0,5.0,69,0.00,,,0.17,weatherlink.com 1.10,2013-07-16 21:22:00,
2013-07-16 16:37:00,84.7,73.0,30.08,SE,146,0.0,5.0,69,0.00,,,0.17,weatherlink.com 1.10,2013-07-16 21:37:00,
2013-07-16 16:52:00,84.0,71.0,30.08,East,98,0.0,0.0,64,0.00,,,0.17,weatherlink.com 1.10,2013-07-16 21:52:00,
2013-07-16 17:07:00,84.2,72.0,30.08,ESE,117,4.0,8.0,67,0.00,,,0.17,weatherlink.com 1.10,2013-07-16 22:07:00,
2013-07-16 17:22:00,83.9,72.0,30.07,ESE,121,3.0,8.0,67,0.00,,,0.17,weatherlink.com 1.10,2013-07-16 22:22:00,
2013-07-16 17:37:00,85.0,72.0,30.07,SE,139,0.0,6.0,65,0.00,,,0.17,weatherlink.com 1.10,2013-07-16 22:37:00,
2013-07-16 17:52:00,85.1,72.0,30.07,SE,132,0.0,7.0,65,0.00,,,0.17,weatherlink.com 1.10,2013-07-16 22:52:00,
2013-07-16 18:07:00,84.6,72.0,30.07,ESE,107,7.0,7.0,66,0.00,,,0.17,weatherlink.com 1.10,2013-07-16 23:07:00,
2013-07-16 18:22:00,83.7,73.0,30.07,ESE,116,3.0,7.0,71,0.00,,,0.17,weatherlink.com 1.10,2013-07-16 23:22:00,
2013-07-16 18:37:00,82.4,74.0,30.08,ESE,117,0.0,0.0,76,0.00,,,0.17,weatherlink.com 1.10,2013-07-16 23:37:00,
2013-07-16 18:52:00,82.3,75.0,30.07,ESE,117,0.0,0.0,78,0.00,,,0.17,weatherlink.com 1.10,2013-07-16 23:52:00,
2013-07-16 19:07:00,82.3,74.0,30.08,ESE,117,0.0,0.0,76,0.00,,,0.17,weatherlink.com 1.10,2013-07-17 00:07:00,
2013-07-16 19:22:00,82.3,74.0,30.09,ESE,117,0.0,0.0,76,0.00,,,0.17,weatherlink.com 1.10,2013-07-17 00:22:00,
2013-07-16 19:37:00,82.3,74.0,30.09,ESE,117,0.0,0.0,77,0.00,,,0.17,weatherlink.com 1.10,2013-07-17 00:37:00,
2013-07-16 19:52:00,82.3,73.0,30.09,East,93,6.0,7.0,74,0.00,,,0.17,weatherlink.com 1.10,2013-07-17 00:52:00,
2013-07-16 20:07:00,81.8,73.0,30.10,East,90,6.0,9.0,74,0.00,,,0.17,weatherlink.com 1.10,2013-07-17 01:07:00,
2013-07-16 20:22:00,81.2,73.0,30.10,ENE,78,3.0,8.0,75,0.00,,,0.17,weatherlink.com 1.10,2013-07-17 01:22:00,
2013-07-16 20:37:00,80.5,72.0,30.11,East,84,3.0,6.0,76,0.00,,,0.17,weatherlink.com 1.10,2013-07-17 01:37:00,
2013-07-16 20:52:00,79.7,72.0,30.11,East,80,6.0,12.0,78,0.00,,,0.17,weatherlink.com 1.10,2013-07-17 01:52:00,
2013-07-16 21:07:00,78.4,73.0,30.12,ENE,76,5.0,10.0,82,0.00,,,0.17,weatherlink.com 1.10,2013-07-17 02:07:00,
2013-07-16 21:22:00,77.4,72.0,30.12,ENE,63,0.0,4.0,84,0.00,,,0.17,weatherlink.com 1.10,2013-07-17 02:22:00,
2013-07-16 21:38:00,76.3,72.0,30.12,NE,53,0.0,0.0,87,0.00,,,0.17,weatherlink.com 1.10,2013-07-17 02:38:00,
2013-07-16 21:53:00,75.7,72.0,30.12,NE,50,0.0,0.0,89,0.00,,,0.17,weatherlink.com 1.10,2013-07-17 02:53:00,
2013-07-16 22:08:00,75.5,72.0,30.13,SW,221,5.0,7.0,89,0.00,,,0.17,weatherlink.com 1.10,2013-07-17 03:08:00,
2013-07-16 22:23:00,75.5,72.0,30.14,West,270,0.0,0.0,89,0.00,,,0.17,weatherlink.com 1.10,2013-07-17 03:23:00,
2013-07-16 22:38:00,75.6,72.0,30.15,West,270,0.0,0.0,89,0.00,,,0.17,weatherlink.com 1.10,2013-07-17 03:38:00,
2013-07-16 22:53:00,75.5,72.0,30.15,West,270,0.0,0.0,89,0.00,,,0.17,weatherlink.com 1.10,2013-07-17 03:53:00,
2013-07-16 23:08:00,75.4,72.0,30.16,West,270,0.0,0.0,89,0.00,,,0.17,weatherlink.com 1.10,2013-07-17 04:08:00,
2013-07-16 23:23:00,75.3,72.0,30.16,West,270,0.0,0.0,89,0.00,,,0.17,weatherlink.com 1.10,2013-07-17 04:23:00,
2013-07-16 23:38:00,75.3,72.0,30.15,West,270,0.0,0.0,90,0.00,,,0.17,weatherlink.com 1.10,2013-07-17 04:38:00,
2013-07-16 23:53:00,75.0,72.0,30.15,West,270,0.0,0.0,91,0.00,,,0.17,weatherlink.com 1.10,2013-07-17 04:53:00,